Find Starlink 35145

NORAD ID: 65685 Int'l Des: 2025-212 Owner: SPXS Country: US Constellation: starlink operational
LEOCIRCULAR

Live Position

Loading 3D Globe...

About Starlink 35145

Description loading...

Upcoming Passes

Passes for default location (London). Set your location on the main map for personalized predictions.

Altitude History

Loading altitude history...

Two-Line Element Set

1 65685U 25212K 26105.87830902 .00005643 00000-0 20252-3 0 9995
2 65685 53.1573 173.1944 0000962 62.6749 297.4349 15.30199145 32883
Epoch: Apr 15, 2026 • Age: 12 hours

Current Status

Altitude 476.0 km
Velocity 7.63 km/s
Sub-Earth Point 3.04°N, 11.86°E
Launch Date Sep 21, 2025
Age 0.5 years
Type internet

Technical Details

Classification Payload
Mass 575.00 kg
Dry Mass 530.00 kg
Total Mass 575.00 kg
Length 0.30 m
Diameter 4.10 m
Span 29.00 m
Shape Box + pan
Manufacturer SPXS
Bus Type Starlink V2MO
Phase Status In Orbit
Owner/State SPXS/US

Most Searched